(15) Eunomia
ephemeris date magn radius delta ra dec elong phase
Opposition13 Dec 20248.22.276 AU1.302 AU05h24m+33°52'169.3°4.6°
Today5 Feb 20259.52.367 AU1.712 AU04h59m+27°05'120.3°21.1°
(15) Eunomia - 2025-02-05
astro.vanbuitenen.nl


 
-1 year
-1 month
-1 day
Now
+1 day
+1 month
+1 year

The interactive orbit chart above shows the body's path through the solar system and its position at the given date. Green and blue lines are shown perpendicular to the ecliptic plane: Green if the path is above the ecliptic plane, blue if it is below. (Left-click and drag to rotate the view; Right-click and drag to move the view; Use scroll wheel to zoom in our out.)

The orbital elements of Eunomia are:

            e (Eccentricity)                : 0.1875840
            a (Semimajor axis)              : 2.6439524
            i (Inclination)                 : 11.75582
            Ω (Longitude of ascending node) : 292.88875
            ω (Argument of perihelion)      : 98.76876
            M (Mean anomaly)                : 21.74829
            Epoch                           : 2024 Oct 17

            L (Longitude of perihelion)     : 211.84236
            B (Latitude of perihelion)      : 11.61649
            P (Orbital period in years)     : 4.30            
        

The light curve chart below shows the estimated development of the minor planet's magnitude.


The all-sky chart below shows the path of the minor planet over the same period as the light curve. The current position is marked yellow.





The following chart shows the path of the minor planet in the next few days. The field of view is optimized for (~10x50) binoculars and finderscopes. A more printer-friendly version of the same chart can be found below.




Ephemerides:
Date       Time       RA (2000)    DEC (2000)    delta   radius  elong  phase   PA    magn
2025-02-05 00:00 UT   04 59 18.1   +27 05 11     1.712    2.367  120.3   21.1    87    9.5 
2025-02-05 12:04 UT   04 59 30.5   +27 02 18     1.718    2.368  119.8   21.2    87    9.5 
2025-02-06 00:00 UT   04 59 43.2   +26 59 29     1.724    2.369  119.4   21.3    86    9.5 
2025-02-07 00:00 UT   05 00 10.0   +26 53 52     1.737    2.371  118.5   21.4    86    9.5 
2025-02-08 00:00 UT   05 00 38.6   +26 48 23     1.750    2.373  117.6   21.6    86    9.6 
2025-02-09 00:00 UT   05 01 09.0   +26 42 59     1.763    2.375  116.7   21.8    86    9.6 
2025-02-10 00:00 UT   05 01 41.0   +26 37 42     1.775    2.377  115.8   22.0    86    9.6 
2025-02-11 00:00 UT   05 02 14.6   +26 32 31     1.789    2.379  114.9   22.1    86    9.6 
2025-02-12 00:00 UT   05 02 49.9   +26 27 26     1.802    2.380  114.0   22.3    86    9.7 
2025-02-13 00:00 UT   05 03 26.8   +26 22 27     1.815    2.382  113.1   22.4    86    9.7 
2025-02-14 00:00 UT   05 04 05.3   +26 17 33     1.828    2.384  112.2   22.5    86    9.7 
2025-02-15 00:00 UT   05 04 45.3   +26 12 45     1.842    2.386  111.4   22.7    86    9.7 
2025-02-16 00:00 UT   05 05 26.8   +26 08 03     1.855    2.388  110.5   22.8    86    9.7 
2025-02-17 00:00 UT   05 06 09.8   +26 03 27     1.869    2.390  109.7   22.9    86    9.8 
2025-02-18 00:00 UT   05 06 54.3   +25 58 55     1.882    2.392  108.8   23.0    86    9.8 
2025-02-19 00:00 UT   05 07 40.2   +25 54 29     1.896    2.394  108.0   23.1    86    9.8 
2025-02-20 00:00 UT   05 08 27.5   +25 50 07     1.910    2.395  107.1   23.2    86    9.8 
2025-02-21 00:00 UT   05 09 16.2   +25 45 51     1.924    2.397  106.3   23.3    86    9.8 
2025-02-22 00:00 UT   05 10 06.3   +25 41 39     1.938    2.399  105.5   23.4    86    9.9 
2025-02-23 00:00 UT   05 10 57.7   +25 37 32     1.952    2.401  104.7   23.5    86    9.9 
2025-02-24 00:00 UT   05 11 50.4   +25 33 30     1.966    2.403  103.9   23.6    86    9.9 
2025-02-25 00:00 UT   05 12 44.4   +25 29 31     1.980    2.405  103.0   23.6    86    9.9 
2025-02-26 00:00 UT   05 13 39.7   +25 25 37     1.994    2.407  102.2   23.7    86    9.9 
2025-02-27 00:00 UT   05 14 36.2   +25 21 47     2.008    2.409  101.4   23.8    86   10.0 
2025-02-28 00:00 UT   05 15 34.0   +25 18 01     2.022    2.411  100.7   23.8    86   10.0 
2025-03-01 00:00 UT   05 16 32.9   +25 14 18     2.037    2.413   99.9   23.9    86   10.0 
2025-03-02 00:00 UT   05 17 33.1   +25 10 39     2.051    2.415   99.1   23.9    86   10.0 
2025-03-03 00:00 UT   05 18 34.4   +25 07 03     2.065    2.417   98.3   23.9    86   10.0 
2025-03-04 00:00 UT   05 19 36.8   +25 03 31     2.080    2.418   97.5   24.0    86   10.1 
2025-03-05 00:00 UT   05 20 40.3   +25 00 01     2.094    2.420   96.8   24.0    86   10.1 
2025-03-06 00:00 UT   05 21 44.9   +24 56 35     2.108    2.422   96.0   24.0    86   10.1 
2025-03-07 00:00 UT   05 22 50.5   +24 53 11     2.123    2.424   95.3   24.1    86   10.1 


    Terminology:
            
    delta:  distance between minor planet and earth in AU
    radius: distance between minor planet and sun in AU
    magn:   magnitude (brightness) estimate    
    ra:     right ascension in hours (24h = 360deg)
    dec:    declination in degrees
    elong:  elongation in degrees (angle sun-earth-minor planet)    
    phase:  phase angle in degrees (angle sun-minor planet-earth)        
    AU:     Astronomical Unit (mean distance between earth and sun: 149597870.7 km
    

Orbital elements provided by the MPC (Minor Planet Center).
Calculations by a modified version of AAPlus, a C# implementation of the AA+ project by PJ Naughter from the algorithms presented in the book "Astronomical Algorithms" by Jean Meeus.
NGC2000 dso catalog and star labels from VizieR as provided by the Strasbourg astronomical Data Center.
Tycho2 catalog from the ESO archive.